Date/Time (UTC),PHv2,PWv2,PTv2,PSv3,PHv3,PWv3,PTv3,MESH,VIL,CompRef,Ref -20C,Flash Rate,Max Flash Density,LJA sigma-level,Max 0-2km AzShear,LLAZ 98th%,MLAZ 98th%,MUCAPE,MLCAPE,CAPE -10C to -30C,MLCIN,SRH 0-1km AGL,EBShear,MeanWind 0-1km AGL,Norm. Sat. Growth Rate,ICP,PWAT,WBZ,AvgBeamHgt,STP(eff),DCAPE,ESRH,LLLR,MLLR
2023/12/09 13:52,1,1,0,1,0,1,0,0,3,50.0,28,0,0,0,4,4,3,1140,590,258,37,123,41,37,1.1,0,1.2,8.5,1.4,0,501,0,5.1,7.5
2023/12/09 13:54,1,1,0,1,1,1,0,0,3,50.0,34,0,0,0,4,4,3,1140,590,252,37,123,42,37,1.1,0,1.2,8.5,1.55,0,501,0,5.2,7.5
2023/12/09 13:56,1,1,0,1,1,1,0,0,3,50.0,34,0,0,0,4,4,4,1140,604,252,34,123,42,36,1.1,0,1.2,8.5,1.65,0,502,0,5.2,7.5
2023/12/09 13:58,1,1,0,1,0,1,0,0,3,50.0,29,0,0,0,4,4,3,1113,604,247,34,120,44,36,1.1,0,1.2,8.4,1.78,0,502,0,5.2,7.5
2023/12/09 14:00,1,1,0,1,0,0,0,0,2,50.0,30,0,0,0,2,2,3,1030,575,246,22,96,50,34,1.1,0,1.2,8.7,1.92,0,504,0,5.3,7.7
2023/12/09 14:02,1,1,0,1,1,0,0,0,4,50.0,32,0,0,0,3,2,5,1030,575,246,23,96,50,34,1.1,0,1.2,8.6,1.96,0,502,0,5.3,7.7
2023/12/09 14:04,1,1,0,1,1,0,0,0,4,49.5,36,0,0,0,3,2,5,1030,575,244,22,96,51,34,1.1,0,1.2,8.8,2.1,0,494,0,5.3,7.7
2023/12/09 14:06,1,1,0,1,1,0,0,0,5,50.0,34,0,0,0,3,2,5,1030,575,245,22,96,51,34,1.1,0,1.2,8.8,2.17,0,494,0,5.3,7.7
2023/12/09 14:08,1,1,0,2,1,1,0,0,5,52.0,34,0,0,0,4,2,5,1029,551,245,24,96,51,34,1.1,0,1.2,8.9,2.25,0,491,0,5.3,7.7
2023/12/09 14:10,1,1,0,3,1,1,0,0.06,6,52.0,36,0,0,0,5,4,4,1010,531,242,28,96,51,34,1.1,0,1.2,8.9,2.35,0,490,0,5.3,7.7
2023/12/09 14:12,1,1,0,3,1,1,0,0.08,7,53.5,40,0,0,0,5,4,5,1029,531,243,28,99,51,33,1.1,0,1.2,9.0,2.54,0,490,0,5.3,7.6
2023/12/09 14:14,1,1,0,4,1,2,0,0.08,8,53.5,36,0,0.03,0,5,4,5,1029,531,245,28,99,51,33,1.1,0,1.2,9.1,2.62,0,490,0,5.3,7.6
2023/12/09 14:16,1,1,0,7,2,3,1,0.13,11,54.0,43,0,0.03,0,8,4,4,1029,521,249,31,97,52,33,1.1,0,1.2,9.1,2.81,0,494,0,5.3,7.6
2023/12/09 14:18,1,1,0,7,2,3,1,0.13,11,54.0,41,0,0.03,0,8,5,4,1029,521,252,31,97,52,33,1.1,0,1.2,9.1,2.92,0,494,0,5.3,7.6
2023/12/09 14:20,1,1,0,10,5,3,1,0.24,12,54.5,46,0,0.03,0,6,5,5,1010,491,259,34,93,53,33,1.1,0,1.2,9.1,3.09,0,498,0,5.2,7.6
2023/12/09 14:22,1,2,0,13,5,4,1,0.24,13,56.0,43,1,0.04,0,6,5,4,1010,491,261,34,93,53,33,1.1,0,1.2,9.1,3.23,0,499,0,5.2,7.6
2023/12/09 14:24,1,2,0,15,5,5,1,0.24,14,56.5,43,1,0.04,0,9,5,6,1035,521,267,33,94,54,33,1.1,0,1.2,9.1,3.46,0,499,0,5.2,7.6
2023/12/09 14:26,1,2,0,10,5,2,1,0.26,14,57.5,47,1,0.04,0,9,5,2,1035,529,273,33,94,55,34,1.2,0,1.2,9.1,3.61,0,502,0,5.2,7.6
2023/12/09 14:28,1,2,0,10,5,3,1,0.26,14,58.0,44,1,0.09,0,9,5,2,996,486,271,37,86,54,34,1.2,0,1.2,9.1,3.83,0,500,0,5.2,7.5
2023/12/09 14:30,1,1,0,16,11,5,1,0.26,15,58.5,48,1,0.09,0,6,4,4,1010,491,268,38,88,53,34,2.2,0,1.2,9.1,3.88,0,500,0,5.2,7.5
2023/12/09 14:32,1,1,0,14,8,4,1,0.25,16,58.5,46,1,0.09,0,6,4,4,996,486,268,39,86,52,34,2.2,0,1.2,9.2,4.19,0,499,0,5.2,7.5
2023/12/09 14:34,1,1,0,19,10,5,1,0.25,16,58.5,45,1,0.09,0,7,4,3,994,457,262,41,85,52,34,2.2,0,1.2,9.2,4.19,0,499,0,5.2,7.5
2023/12/09 14:36,1,1,0,18,10,6,1,0.22,16,57.5,46,1,0.09,0,6,4,4,982,418,259,47,83,51,34,2.2,1,1.2,9.3,4.52,0,495,0,5.2,7.5
2023/12/09 14:38,1,1,0,19,7,6,1,0.22,17,60.5,42,1,0.09,0,5,4,4,982,418,255,47,83,51,34,2.2,1,1.2,9.3,4.57,0,495,0,5.2,7.5
2023/12/09 14:40,2,1,0,15,13,4,1,0.31,17,60.5,47,2,0.09,0,5,4,2,982,407,245,51,83,51,34,0,1,1.2,9.3,4.9,0,490,0,5.2,7.5
2023/12/09 14:42,2,2,0,17,9,4,1,0.31,17,60.5,44,2,0.09,0,8,5,3,1017,426,255,47,91,52,34,0,1,1.2,9.3,4.62,0,496,0,5.2,7.5
2023/12/09 14:44,2,2,0,13,6,3,1,0.31,14,57.5,42,2,0.09,0,8,5,3,926,346,235,57,74,50,33,0,5,1.2,9.4,5.15,0,483,0,5.2,7.5
2023/12/09 14:46,1,1,0,10,4,3,1,0.15,11,55.5,44,2,0.09,0,6,5,2,926,342,227,58,74,51,33,0,6,1.2,9.4,5.39,0,476,0,5.2,7.5
2023/12/09 14:48,1,1,0,8,3,2,1,0.13,11,54.0,40,2,0.09,0,6,5,3,926,342,227,58,74,52,32,0,5,1.2,9.4,5.53,0,468,0,5.2,7.5
2023/12/09 14:50,1,2,0,11,5,3,1,0.18,11,54.0,44,1,0.09,0,7,6,3,949,355,229,55,75,52,32,0,12,1.3,9.4,5.51,0,476,0,5.2,7.5
2023/12/09 14:52,1,2,0,10,4,3,1,0.18,10,54.0,42,1,0.09,0,7,6,3,937,347,229,55,75,52,32,0,15,1.3,9.4,5.65,0,468,0,5.2,7.5
2023/12/09 14:54,1,2,0,10,4,3,1,0.18,10,54.0,42,1,0.09,0,7,6,3,949,360,229,55,75,52,32,0,28,1.3,9.4,5.91,0,461,0,5.2,7.4
2023/12/09 14:56,1,1,0,8,5,2,1,0.11,10,54.0,42,1,0.09,0,6,4,3,1029,318,226,1,80,52,35,0,23,1.3,9.4,5.97,0,426,0,5.0,7.5
2023/12/09 14:58,1,1,0,10,5,3,1,0.13,11,54.0,42,1,0.09,0,6,4,3,1068,318,231,1,80,52,35,0,54,1.3,9.4,6.28,0,426,0,5.0,7.5
2023/12/09 15:00,1,1,0,10,7,3,1,0.2,11,54.0,46,1,0.08,0,6,4,3,1076,318,231,0,80,52,35,0,70,1.3,9.4,6.39,0,426,0,5.0,7.5
2023/12/09 15:02,1,1,0,10,7,3,1,0.2,12,56.0,42,2,0.09,0,6,4,3,1109,353,239,0,80,53,35,0,66,1.3,9.4,6.63,0,432,0,5.0,7.5
2023/12/09 15:04,1,1,0,10,8,3,1,0.2,14,56.0,45,2,0.09,0,6,4,3,1110,353,242,0,80,53,35,0,41,1.3,9.4,6.68,0,432,0,5.0,7.5
2023/12/09 15:06,1,1,0,9,7,2,0,0.19,14,56.0,43,2,0.09,0,5,3,3,1123,358,245,0,79,53,35,0,51,1.3,9.4,6.6,0,432,0,5.0,7.6
2023/12/09 15:08,1,1,0,11,9,2,0,0.24,14,56.0,45,2,0.09,0,3,2,3,1121,353,243,0,79,53,35,0,26,1.3,9.4,6.6,0,426,0,5.0,7.5
2023/12/09 15:10,1,1,0,11,9,4,0,0.24,14,56.0,44,2,0.09,0,4,3,3,1135,361,247,0,81,55,34,0,47,1.3,9.4,6.44,0,387,0,5.0,7.5
2023/12/09 15:12,1,1,0,13,11,4,0,0.24,15,56.0,45,3,0.09,0,4,4,3,1121,357,248,0,87,56,34,0,67,1.3,9.4,6.08,0,387,0,5.0,7.5
2023/12/09 15:14,1,1,0,15,15,5,0,0.29,15,56.0,48,3,0.09,0,5,4,3,1119,355,246,0,87,56,34,0,71,1.3,9.4,5.92,0,387,0,5.0,7.4
2023/12/09 15:16,1,1,0,23,20,9,1,0.29,17,56.0,48,5,0.13,0,7,4,4,1111,353,246,1,89,56,34,0,77,1.3,9.4,5.72,0,387,0,5.0,7.4
2023/12/09 15:18,3,3,0,36,35,11,1,0.47,23,57.5,52,5,0.18,0,7,4,4,1104,353,247,1,89,56,34,0,70,1.3,9.4,5.51,0,389,0,5.0,7.4
2023/12/09 15:20,3,3,0,41,41,11,1,0.47,23,59.0,51,5,0.18,0,7,4,4,1096,352,251,2,92,56,34,0,69,1.3,9.4,5.38,0,389,0,5.0,7.4
2023/12/09 15:22,3,3,0,43,40,13,1,0.47,24,62.5,50,5,0.18,0,5,4,5,1095,350,264,3,93,55,33,0,86,1.3,9.4,5.14,0,386,0,5.0,7.4
2023/12/09 15:24,2,2,0,45,45,11,1,0.42,24,62.5,51,5,0.18,0,5,4,5,1095,350,267,5,93,55,33,0,65,1.3,9.4,5.04,0,386,0,5.0,7.4
2023/12/09 15:26,2,2,0,33,32,11,1,0.38,24,62.5,50,5,0.18,0,5,4,4,1090,349,284,6,93,55,33,0,81,1.3,9.4,4.88,0,386,0,5.0,7.4
2023/12/09 15:28,2,2,0,37,37,12,1,0.41,21,60.5,50,7,0.18,0,5,4,4,1095,349,291,7,95,54,33,0,56,1.3,9.4,4.76,0,389,0,5.0,7.4
2023/12/09 15:30,2,1,0,27,27,9,1,0.41,19,62.0,48,7,0.18,0,5,4,4,1100,343,306,10,93,54,33,0,63,1.3,9.4,4.57,0,389,0,5.0,7.4
2023/12/09 15:32,2,1,0,29,29,9,1,0.42,19,62.0,48,7,0.18,0,5,4,4,1102,342,318,14,95,53,33,0,76,1.3,9.4,4.39,0,388,0,5.0,7.4
2023/12/09 15:34,2,2,0,31,31,9,1,0.42,21,62.0,49,7,0.18,0,7,4,3,1114,342,323,16,92,53,33,0,49,1.3,9.4,4.24,0,383,0,5.1,7.4
2023/12/09 15:36,3,3,0,33,33,9,1,0.49,21,61.0,50,6,0.18,0,7,5,4,1144,338,330,23,97,52,33,0,54,1.3,9.4,4.01,0,385,0,5.1,7.5
2023/12/09 15:38,3,3,0,40,38,14,2,0.49,21,61.0,50,6,0.18,0,7,5,4,1144,351,329,24,88,53,32,0,71,1.3,9.4,3.83,0,385,0,5.2,7.4
2023/12/09 15:40,3,16,0,47,47,15,2,0.52,25,62.5,51,6,0.18,0,8,5,4,1167,357,330,29,91,53,32,0,65,1.3,9.4,3.76,0,388,0,5.2,7.4
2023/12/09 15:42,6,20,0,57,57,16,2,0.65,25,62.5,52,8,0.18,0,8,5,5,1167,360,329,30,92,52,32,0,66,1.3,9.4,3.73,0,389,0,5.2,7.4
2023/12/09 15:44,6,20,0,54,54,17,2,0.65,25,62.5,54,8,0.2,0,8,5,5,1175,371,330,35,92,53,31,0,27,1.3,9.4,3.56,0,404,0,5.2,7.4
2023/12/09 15:46,9,21,0,60,55,18,2,0.8,26,63.5,55,8,0.2,0,8,5,5,1171,374,331,40,94,53,31,0,29,1.3,9.4,3.41,0,414,0,5.2,7.4
2023/12/09 15:48,10,21,0,61,55,17,2,0.8,26,63.5,54,8,0.22,0,8,5,5,1169,375,330,44,96,53,31,0,27,1.3,9.4,3.27,0,428,0,5.3,7.5
2023/12/09 15:50,15,34,0,69,64,30,3,0.88,28,66.0,56,13,0.37,2.6,8,5,5,1169,387,329,50,98,53,31,0,48,1.3,9.4,3.12,0,438,0,5.3,7.5
2023/12/09 15:52,15,34,0,71,68,27,3,0.88,28,67.0,56,13,0.4,0,8,5,5,1161,387,328,53,98,54,31,0,56,1.3,9.4,3.08,0,438,0,5.3,7.5
2023/12/09 15:54,18,52,0,73,70,31,3,0.88,32,67.5,58,20,0.41,3.0,6,5,5,1138,391,323,50,92,53,32,0,36,1.3,9.4,2.95,0,438,0,5.3,7.5
2023/12/09 15:56,17,52,0,72,61,29,3,0.84,32,67.5,56,20,0.41,0,6,5,4,1138,395,320,51,92,53,32,0,44,1.3,9.4,2.85,0,443,0,5.4,7.5
2023/12/09 15:58,17,50,0,68,54,25,2,0.84,32,67.5,54,20,0.41,0,6,5,4,1134,395,311,50,91,53,32,0,19,1.3,9.4,2.76,0,438,0,5.4,7.5
2023/12/09 16:00,13,42,0,64,58,30,3,0.74,29,66.0,53,20,0.41,0,6,5,4,1275,713,257,0,130,47,40,0,29,1.3,9.4,2.58,0,419,0,5.4,7.5
2023/12/09 16:02,8,32,0,60,51,28,5,0.74,29,66.0,54,7,0.41,0,9,6,4,1275,687,257,0,132,47,40,0,14,1.3,9.4,2.57,0,417,0,5.4,7.5
2023/12/09 16:04,6,37,0,56,44,29,6,0.65,29,64.5,50,7,0.41,0,8,7,4,1293,720,259,0,133,49,40,0,17,1.3,9.4,2.5,0,424,0,5.4,7.5
2023/12/09 16:06,6,33,0,57,38,31,6,0.65,29,64.5,48,7,0.41,0,8,7,4,1308,723,262,0,138,50,40,0,23,1.3,9.4,2.41,0,428,0,5.4,7.6
2023/12/09 16:08,4,31,0,60,30,26,6,0.53,25,66.5,46,3,0.41,0,9,7,5,1324,747,263,1,140,51,40,0,20,1.2,9.4,2.35,0,432,0,5.5,7.6
2023/12/09 16:10,2,24,1,58,19,25,7,0.38,22,66.5,44,3,0.41,0,9,8,4,1355,773,268,1,143,52,40,0,24,1.2,9.4,2.23,0,439,0,5.5,7.6
2023/12/09 16:12,2,22,1,52,15,23,7,0.3,20,66.5,44,2,0.41,0,9,8,4,1355,773,270,1,142,52,40,0,28,1.2,9.4,2.21,0,439,0,5.5,7.6
2023/12/09 16:14,1,12,1,46,16,27,8,0.3,17,60.0,43,4,0.41,0,10,9,4,1376,803,277,2,140,51,39,0,28,1.2,9.4,2.14,0,450,0,5.6,7.6
2023/12/09 16:16,1,22,1,48,25,25,10,0.3,17,60.0,46,4,0.41,0,10,9,7,1388,804,279,2,140,51,39,0,35,1.2,9.4,2.12,0,454,0,5.6,7.6
2023/12/09 16:18,1,22,2,48,18,25,10,0.29,17,59.5,44,4,0.41,0,10,9,7,1404,830,284,3,140,51,38,0,30,1.2,9.4,2.07,0,462,0,5.6,7.6
2023/12/09 16:20,1,22,2,47,19,26,11,0.29,15,59.5,44,4,0.41,0,11,9,5,1410,830,288,3,138,50,38,0,32,1.2,9.4,2.05,0,469,0,5.6,7.6
2023/12/09 16:22,1,22,6,54,17,30,13,0.23,15,59.5,44,4,0.41,0,16,12,5,1420,830,295,3,140,49,38,0,37,1.2,9.4,2.05,0,473,0,5.7,7.6
2023/12/09 16:24,1,12,5,52,15,25,15,0.25,14,58.5,43,4,0.41,0,16,14,5,1427,830,305,4,140,49,38,0,40,1.2,9.4,2.03,0,474,0,5.7,7.6
2023/12/09 16:26,1,22,7,56,25,29,15,0.28,16,58.5,46,5,0.27,0,16,14,7,1441,830,305,4,141,48,38,0,39,1.2,9.4,2.02,0,486,0,5.7,7.6
2023/12/09 16:28,1,24,8,57,20,34,15,0.28,17,59.5,44,5,0.27,0,16,14,7,1444,830,316,3,143,48,38,0,65,1.2,9.4,2.06,0,486,0,5.7,7.6
2023/12/09 16:30,2,29,9,63,32,34,16,0.33,18,59.5,47,5,0.26,0,14,13,7,1446,858,316,3,145,48,38,0,68,1.2,9.4,2.04,0,490,0,5.7,7.6
2023/12/09 16:32,2,29,11,65,30,36,19,0.33,21,59.5,47,5,0.17,0,17,13,7,1446,856,329,3,147,48,38,0,68,1.2,9.4,2.08,0,494,0,5.7,7.6
2023/12/09 16:34,3,35,16,66,40,36,19,0.44,23,59.5,50,4,0.17,0,16,15,7,1471,856,340,2,157,49,38,0,54,1.2,9.4,2.14,0,500,0,5.7,7.6
2023/12/09 16:36,3,35,20,63,44,37,19,0.45,25,59.5,50,4,0.17,0,16,15,7,1487,885,342,2,161,49,38,0,54,1.2,9.4,2.13,0,501,0,5.7,7.6
2023/12/09 16:38,3,35,26,63,42,40,21,0.45,25,59.5,50,7,0.17,0,16,15,5,1494,925,358,2,167,49,39,0,66,1.2,9.4,2.24,0,485,0,5.7,7.5
2023/12/09 16:40,4,51,30,72,55,39,20,0.54,28,60.0,52,9,0.22,0,16,15,6,1496,925,350,2,167,49,39,0,67,1.2,9.4,2.22,0,485,0,5.7,7.5
2023/12/09 16:42,4,46,36,72,57,45,20,0.54,28,62.5,52,9,0.22,0,16,14,6,1497,926,359,3,170,50,39,0,76,1.2,9.4,2.33,0,476,0,5.7,7.5
2023/12/09 16:44,4,46,39,71,36,42,26,0.54,28,62.5,46,9,0.22,0,16,14,7,1505,988,359,3,170,50,39,0,73,1.2,9.4,2.36,0,469,0,5.7,7.5
2023/12/09 16:46,4,51,30,69,44,42,24,0.5,26,62.5,49,9,0.22,0,13,12,6,1505,988,354,3,169,50,39,0,75,1.2,9.4,2.46,0,451,0,5.7,7.5
2023/12/09 16:48,3,35,36,66,38,37,21,0.42,26,61.5,49,4,0.22,0,14,12,6,1497,1017,353,5,166,50,39,0,74,1.2,9.4,2.59,0,435,0,5.8,7.5
2023/12/09 16:50,3,32,30,64,36,34,21,0.44,26,60.5,48,5,0.22,0,14,12,6,1497,1017,350,5,166,50,39,0,76,1.2,9.4,2.6,0,435,0,5.8,7.5
2023/12/09 16:52,3,35,31,66,35,37,25,0.44,27,60.5,48,5,0.22,0,14,12,6,1486,1043,347,5,160,50,39,0,84,1.2,9.4,2.75,0,432,0,5.8,7.6
2023/12/09 16:54,3,35,34,67,31,38,25,0.44,27,60.5,46,5,0.22,0,14,12,6,1467,1043,337,5,152,49,39,0,74,1.2,9.4,2.84,0,428,0,5.9,7.6
2023/12/09 16:56,3,35,41,69,33,42,28,0.41,27,61.5,47,5,0.22,0,17,12,6,1447,1059,334,5,150,49,39,0,79,1.2,9.4,2.93,0,433,0,5.9,7.6
2023/12/09 16:58,2,33,49,62,22,38,14,0.32,22,61.5,46,5,0.22,0,21,12,6,926,491,209,2,123,45,42,0,77,1.2,9.3,3.14,0,436,0,5.5,7.7
2023/12/09 17:00,2,33,49,62,20,38,14,0.32,22,61.5,46,5,0.22,0,21,12,5,926,491,209,3,130,45,42,0,80,1.2,9.3,3.15,0,436,0,5.6,7.7
2023/12/09 17:02,2,33,50,59,22,37,15,0.3,22,59.5,46,5,0.22,0,19,12,5,935,507,209,4,136,46,42,0,80,1.2,9.3,3.36,0,442,0,5.6,7.7
2023/12/09 17:04,2,29,51,58,15,36,16,0.27,19,59.5,44,5,0.22,0,20,14,5,924,481,207,5,136,46,43,0,85,1.2,9.3,3.45,0,428,0,5.6,7.7
2023/12/09 17:06,2,29,52,58,17,34,19,0.27,19,59.5,45,4,0.22,0,18,14,5,914,507,209,6,145,48,43,0,84,1.2,9.3,3.68,0,433,0,5.7,7.7
2023/12/09 17:08,2,32,52,64,26,35,21,0.39,19,58.0,47,4,0.22,0,19,15,5,909,481,207,7,143,49,44,0,86,1.2,9.4,3.83,0,425,0,5.7,7.7
2023/12/09 17:10,2,32,52,63,26,37,21,0.39,19,58.0,46,6,0.22,0,19,15,5,909,481,207,7,143,49,44,0,87,1.2,9.4,3.83,0,425,0,5.7,7.7
2023/12/09 17:12,3,39,52,66,28,40,27,0.39,21,59.0,45,6,0.21,0,19,15,6,914,526,210,8,145,51,44,0,89,1.2,9.4,3.98,0,433,0,5.8,7.6
2023/12/09 17:14,3,44,52,68,40,43,28,0.43,23,59.0,49,8,0.21,0,19,15,6,911,526,210,8,145,51,44,0,89,1.2,9.4,4.08,0,425,0,5.8,7.6
2023/12/09 17:16,3,56,54,71,43,45,28,0.44,23,59.0,49,8,0.21,0,15,12,8,911,526,214,8,145,52,45,0,90,1.2,9.4,4.17,0,425,0,5.8,7.6
2023/12/09 17:18,6,60,54,75,41,44,28,0.63,30,58.5,49,8,0.21,0,16,13,8,914,551,215,8,136,52,45,0,88,1.2,9.4,4.32,0,424,0,5.9,7.6
2023/12/09 17:20,6,60,54,76,50,49,31,0.63,30,58.5,53,8,0.21,0,16,13,7,914,551,217,8,136,53,45,0,89,1.2,9.4,4.34,0,424,0,5.9,7.6
2023/12/09 17:22,9,72,66,79,54,60,40,0.63,30,58.5,53,16,0.59,4.1,16,13,8,934,611,225,6,135,54,45,0,96,1.2,9.4,4.49,0,424,0,6.0,7.5
2023/12/09 17:24,16,72,54,82,61,63,40,0.76,30,58.0,55,20,0.59,0.9,15,10,9,959,664,235,5,132,55,44,0,97,1.2,9.4,4.52,0,424,0,6.0,7.5
2023/12/09 17:26,16,72,66,84,59,64,45,0.76,32,58.0,55,20,0.59,0,13,12,8,985,693,238,4,130,56,44,0,99,1.2,9.4,4.54,0,424,0,6.0,7.5
2023/12/09 17:28,31,81,66,85,60,70,45,0.76,32,58.0,51,34,0.59,3.6,13,12,8,991,727,254,4,125,58,43,0,98,1.2,9.4,4.47,0,433,0,6.1,7.5
2023/12/09 17:30,54,92,57,89,73,70,50,1.11,37,59.5,59,34,0.59,-2,13,12,7,1046,807,258,2,125,59,43,0,98,1.2,9.4,4.52,0,447,0,6.1,7.5
2023/12/09 17:32,54,90,51,88,74,74,43,1.11,41,59.5,58,34,0.59,0,14,11,5,1050,807,266,2,125,61,42,0,99,1.2,9.4,4.34,0,447,0,6.1,7.5
2023/12/09 17:34,54,95,32,91,80,70,43,1.14,44,62.0,57,34,0.59,1.0,14,9,6,1105,885,279,2,125,63,41,0,99,1.2,9.4,4.25,0,459,0,6.2,7.6
2023/12/09 17:36,49,93,40,91,74,75,47,1.15,49,62.0,57,28,0.59,0,16,10,6,1122,902,281,1,126,64,40,0,99,1.2,9.4,4.07,0,472,0,6.2,7.6
2023/12/09 17:38,54,95,56,92,80,73,48,1.17,51,62.0,57,32,0.59,0.9,16,13,7,1158,902,281,1,128,65,40,0,99,1.2,9.4,3.93,0,458,0,6.2,7.5
2023/12/09 17:40,57,95,62,92,79,71,50,1.17,51,61.0,56,34,0.59,0.2,19,14,7,1176,940,281,1,132,65,39,0,99,1.2,9.4,3.84,0,465,0,6.2,7.6
2023/12/09 17:42,57,95,64,92,79,69,52,1.17,51,61.0,54,34,0.59,-1,19,14,7,1205,980,281,1,137,66,39,0,99,1.2,9.4,3.76,0,475,0,6.2,7.6
2023/12/09 17:44,45,93,64,91,78,71,51,1.0,46,61.0,54,34,0.59,0,19,14,7,1212,992,279,0,140,66,39,0,99,1.2,9.4,3.64,0,465,0,6.2,7.6
2023/12/09 17:46,43,93,53,90,76,73,47,0.93,44,61.0,51,34,0.59,0,23,10,7,1231,1008,278,0,145,66,39,0,98,1.2,9.4,3.49,0,465,0,6.2,7.6
2023/12/09 17:48,29,87,64,89,74,65,51,0.89,43,61.0,52,25,0.59,0,20,13,7,1235,1030,279,0,148,66,39,0,97,1.2,9.4,3.43,0,465,0,6.3,7.6
2023/12/09 17:50,20,80,73,86,66,65,50,0.74,35,59.0,51,24,0.59,-1,20,14,8,1242,1035,279,0,149,66,39,0,98,1.2,9.4,3.32,0,465,0,6.3,7.6
2023/12/09 17:52,16,73,76,84,60,64,54,0.62,31,59.0,50,23,0.59,0.4,20,16,8,1242,1046,282,0,151,66,39,0,98,1.3,9.4,3.27,0,465,0,6.3,7.6
2023/12/09 17:54,12,66,79,82,58,65,49,0.59,29,59.0,50,19,0.58,-1,20,16,6,1242,1064,285,0,151,65,39,0,90,1.3,9.4,3.14,0,465,0,6.3,7.6
2023/12/09 17:56,7,65,81,78,52,58,47,0.49,28,57.0,50,15,0.58,0,20,16,8,1242,1064,293,0,151,65,40,0,92,1.3,9.4,3.06,0,460,0,6.3,7.6
2023/12/09 17:58,7,65,83,78,46,56,49,0.48,25,57.0,48,15,0.58,0,20,15,8,1249,1073,297,0,151,64,40,0,86,1.3,9.4,3.05,0,461,0,6.3,7.6
2023/12/09 18:00,6,62,83,79,49,53,48,0.48,25,57.0,48,11,0.58,1.8,20,15,8,1258,1095,307,0,151,64,40,0,85,1.3,9.4,3.0,0,461,0,6.3,7.6
2023/12/09 18:02,8,63,83,78,45,68,55,0.45,22,57.0,49,11,0.58,0,20,15,5,1073,737,267,1,161,67,46,0,86,1.3,9.3,2.97,0,426,0,6.2,7.4
2023/12/09 18:04,8,64,68,79,55,68,51,0.51,23,57.0,52,11,0.58,0,17,10,5,1102,737,271,1,161,69,46,0,85,1.3,9.3,2.94,0,424,0,6.2,7.4
2023/12/09 18:06,8,63,56,81,61,64,51,0.51,24,57.0,52,11,0.58,0,17,10,6,1145,788,286,0,158,72,46,0,83,1.3,9.3,2.89,0,419,0,6.2,7.4
2023/12/09 18:08,9,62,51,80,64,67,45,0.57,25,59.5,53,10,0.58,0,16,10,6,1195,806,301,0,158,74,45,0,94,1.3,9.2,2.84,0,419,0,6.3,7.4
2023/12/09 18:10,11,62,51,80,65,62,41,0.59,27,59.5,54,10,0.58,0,16,10,6,1272,881,312,0,158,75,45,0,95,1.3,9.2,2.88,0,420,0,6.3,7.4
2023/12/09 18:12,12,63,47,82,67,62,46,0.59,27,59.5,54,13,0.44,1.0,16,10,5,1297,909,317,0,155,75,44,0,95,1.3,9.1,2.89,0,420,0,6.3,7.4
2023/12/09 18:14,16,65,44,80,63,64,36,0.7,31,58.5,54,16,0.31,0.9,15,9,5,1323,931,332,0,154,75,43,0,96,1.3,9.0,2.91,0,423,0,6.3,7.3
2023/12/09 18:16,26,78,38,83,69,63,33,0.79,34,59.5,56,21,0.34,1.9,11,9,5,1374,981,340,0,147,74,42,0,97,1.3,9.0,2.98,0,428,0,6.4,7.4
2023/12/09 18:18,25,78,38,83,67,63,38,0.79,34,59.5,52,21,0.34,0,11,9,6,1378,1016,354,0,144,74,42,0,97,1.3,9.0,3.02,0,430,0,6.4,7.4
2023/12/09 18:20,25,78,30,83,68,59,39,0.79,34,59.5,54,22,0.44,0.4,13,9,6,1378,1016,357,0,142,73,41,0,98,1.3,8.9,2.99,0,430,0,6.4,7.4
2023/12/09 18:22,28,83,46,82,67,61,50,0.72,34,58.0,54,29,0.44,3.5,15,11,6,1409,1051,365,0,144,72,41,0,99,1.3,8.9,3.02,0,434,0,6.4,7.4
2023/12/09 18:24,28,81,46,84,60,64,51,0.72,34,59.5,49,29,0.44,-2,15,11,6,1409,1069,381,0,144,71,40,0,99,1.3,9.0,3.04,0,434,0,6.4,7.5
2023/12/09 18:26,31,81,46,84,67,59,50,0.72,34,59.5,52,29,0.44,0,15,11,6,1409,1069,383,0,145,70,40,0,99,1.3,9.0,3.05,0,434,0,6.5,7.5
2023/12/09 18:28,25,76,40,84,71,65,48,0.64,30,61.5,55,29,0.44,0,15,10,4,1482,1145,380,0,152,70,41,0,80,1.3,9.1,3.5,0,448,0,6.5,7.5
2023/12/09 18:30,20,73,27,81,62,57,40,0.64,30,61.5,49,22,0.44,0.1,12,9,4,1500,1165,381,0,155,69,41,0,90,1.3,9.1,3.49,0,451,0,6.5,7.5
2023/12/09 18:32,16,62,17,77,61,53,28,0.56,26,61.5,50,21,0.44,1.1,12,7,4,1509,1174,381,0,156,69,41,0,94,1.3,9.2,3.56,0,452,0,6.6,7.5
2023/12/09 18:34,11,63,17,76,58,53,28,0.47,26,61.0,50,21,0.44,-1,12,7,4,1509,1174,381,0,157,69,41,0,78,1.3,9.2,3.54,0,453,0,6.6,7.5
2023/12/09 18:36,10,63,9,73,47,52,27,0.44,26,59.5,46,21,0.44,0,9,5,4,1482,1176,376,0,163,68,41,0,88,1.3,9.2,3.52,0,454,0,6.6,7.5
2023/12/09 18:38,8,62,6,67,44,52,27,0.36,23,59.5,46,21,0.44,1.9,8,5,4,1462,1152,372,0,170,68,41,0,89,1.3,9.3,3.46,0,454,0,6.6,7.5
2023/12/09 18:40,7,62,6,65,43,51,26,0.34,24,59.5,46,21,0.44,-1,6,5,4,1466,1174,363,0,176,68,42,0,90,1.2,9.3,3.51,0,454,0,6.6,7.5
2023/12/09 18:42,7,55,5,66,44,54,25,0.34,24,59.0,46,21,0.44,0.5,7,5,4,1466,1176,359,0,178,68,42,0,90,1.2,9.3,3.59,0,454,0,6.6,7.5
2023/12/09 18:44,7,59,5,67,45,47,26,0.38,24,59.0,48,22,0.44,1.0,7,5,5,1466,1176,352,0,188,68,43,0,92,1.2,9.3,3.62,0,454,0,6.6,7.4
2023/12/09 18:46,10,62,5,70,50,48,27,0.46,27,59.0,49,22,0.44,0,7,5,4,1463,1176,347,0,195,68,44,0,94,1.2,9.3,3.64,0,454,0,6.6,7.4
2023/12/09 18:48,10,62,5,69,48,54,28,0.47,27,58.0,50,22,0.44,0,7,5,4,1466,1190,340,0,201,68,45,0,93,1.2,9.3,3.69,0,455,0,6.6,7.4
2023/12/09 18:50,10,62,8,71,46,57,34,0.47,27,58.0,48,22,0.44,0,9,6,4,1463,1190,339,0,203,68,46,0,96,1.2,9.3,3.69,0,455,0,6.6,7.4
2023/12/09 18:52,10,62,9,73,53,62,39,0.47,26,58.5,50,23,0.44,1.8,9,6,4,1452,1176,335,0,216,69,47,0,98,1.2,9.3,3.6,0,454,0,6.5,7.4
2023/12/09 18:54,16,62,18,76,48,65,44,0.46,26,58.5,48,23,0.44,0,9,7,5,1452,1176,335,0,216,69,47,0,95,1.3,9.3,3.6,0,454,0,6.5,7.4
2023/12/09 18:56,16,64,18,76,50,68,45,0.45,26,58.5,49,23,0.44,0,9,7,5,1450,1160,335,0,217,70,48,0,94,1.3,9.3,3.53,0,454,0,6.5,7.4
2023/12/09 18:58,19,73,22,79,58,69,53,0.54,28,58.5,50,23,0.44,0.3,10,8,6,1426,1119,338,0,225,71,49,0,97,1.3,9.3,3.19,0,450,0,6.5,7.4
2023/12/09 19:00,15,62,22,78,54,57,46,0.54,28,59.0,50,16,0.44,0.6,10,8,6,1338,1140,295,0,199,65,49,0,98,1.3,9.3,3.03,0,432,0,6.3,7.6
2023/12/09 19:02,17,64,22,78,51,61,47,0.55,28,59.0,50,16,0.44,0,10,8,6,1349,1113,301,0,217,65,49,0,98,1.3,9.2,2.9,0,433,0,6.3,7.6
2023/12/09 19:04,17,64,22,79,53,61,48,0.55,30,59.0,50,16,0.44,0.5,10,8,6,1349,1112,314,0,217,66,49,0,97,1.3,9.1,2.71,0,433,0,6.4,7.6
2023/12/09 19:06,17,66,21,78,55,59,38,0.55,30,60.5,50,16,0.44,0,9,8,7,1353,1112,315,0,219,67,49,0,97,1.3,9.1,2.64,0,445,0,6.4,7.6
2023/12/09 19:08,12,63,32,77,56,58,47,0.52,30,60.5,50,12,0.44,0.2,10,9,7,1372,1112,319,0,226,68,49,0,88,1.3,9.0,2.53,0,445,0,6.4,7.5
2023/12/09 19:10,12,62,58,83,63,62,58,0.55,30,60.5,50,12,0.44,0.3,13,10,8,1372,1104,320,0,226,68,49,0,93,1.3,8.9,2.35,0,445,0,6.5,7.5
2023/12/09 19:12,13,64,65,83,62,60,58,0.55,30,60.0,50,15,0.44,0.9,12,10,9,1380,1090,324,0,226,69,48,0,95,1.3,8.8,2.29,0,455,0,6.5,7.5
2023/12/09 19:14,16,71,71,86,60,65,59,0.55,29,61.5,48,20,0.5,2.6,15,10,7,1346,1071,318,0,220,69,48,0,94,1.3,8.8,2.12,0,455,0,6.5,7.4
2023/12/09 19:16,16,66,76,86,56,69,59,0.52,29,61.5,48,20,0.5,0,15,11,7,1325,1052,317,0,220,69,47,0,95,1.2,8.7,1.99,0,456,0,6.6,7.4
2023/12/09 19:18,10,63,64,84,53,67,58,0.39,24,61.5,48,20,0.5,0,14,11,7,1296,1031,309,0,219,70,46,0,80,1.2,8.6,1.87,0,465,0,6.6,7.4
2023/12/09 19:20,8,65,64,80,37,66,53,0.34,24,58.5,44,20,0.5,0,14,11,7,1276,1016,302,0,216,70,45,0,82,1.2,8.6,1.74,0,465,0,6.6,7.4
2023/12/09 19:22,7,55,62,73,42,50,43,0.37,22,57.0,47,7,0.5,0,13,11,7,1275,1010,295,0,213,70,44,0,84,1.2,8.7,1.62,0,465,0,6.6,7.4
2023/12/09 19:24,7,59,65,71,46,48,41,0.39,19,56.5,49,7,0.5,0,13,11,8,1270,991,291,0,209,69,44,0,74,1.2,8.7,1.53,0,465,0,6.6,7.3
2023/12/09 19:26,7,59,65,74,45,47,42,0.39,18,57.0,48,7,0.5,0,13,11,8,1248,976,288,0,203,68,44,0,89,1.2,8.8,1.34,0,465,0,6.6,7.3
2023/12/09 19:28,7,62,65,73,46,43,41,0.39,18,57.0,48,6,0.5,0,13,10,8,1248,976,287,0,200,68,44,0,92,1.2,8.9,1.24,0,470,0,6.6,7.3
2023/12/09 19:30,6,62,62,71,51,44,37,0.38,18,57.0,49,6,0.5,0,14,9,9,1270,991,287,0,197,67,43,0,94,1.2,8.9,1.13,0,479,0,6.5,7.3
2023/12/09 19:32,6,59,71,75,54,43,40,0.39,19,59.5,48,6,0.5,0,15,10,8,1277,992,287,0,195,66,43,0,96,1.2,8.9,1.02,0,485,0,6.5,7.3
2023/12/09 19:34,9,62,71,78,55,43,41,0.53,19,59.5,48,8,0.5,0,15,10,8,1277,992,289,0,194,64,43,0,92,1.2,8.9,0.93,0,485,0,6.5,7.3
2023/12/09 19:36,9,62,81,79,66,47,46,0.54,22,59.5,54,8,0.5,0,16,12,9,1295,1008,294,0,194,64,43,0,95,1.2,8.8,0.84,0,492,0,6.5,7.3
2023/12/09 19:38,9,62,81,79,52,49,47,0.54,22,58.5,49,8,0.5,0,16,12,8,1295,1008,302,0,195,63,44,0,91,1.2,8.7,0.72,0,492,0,6.5,7.3
2023/12/09 19:40,9,62,81,78,47,49,45,0.54,22,58.5,49,8,0.5,0,16,12,9,1303,1020,309,0,201,63,44,0,96,1.2,8.6,0.63,0,497,0,6.4,7.3
2023/12/09 19:42,6,59,85,76,42,52,47,0.41,19,58.5,48,4,0.5,0,19,12,7,1303,1020,318,0,214,62,45,0,95,1.1,8.4,0.51,0,496,0,6.4,7.3
2023/12/09 19:44,5,59,85,75,43,50,48,0.41,19,58.5,48,4,0.5,0,19,12,7,1300,1020,324,0,222,62,46,0,65,1.1,8.3,0.44,0,494,0,6.4,7.3
2023/12/09 19:46,3,53,80,74,32,51,49,0.39,19,58.5,44,3,0.39,0,18,14,8,1300,1030,327,0,240,62,47,0,72,1.1,8.2,0.35,0,491,0,6.3,7.3
2023/12/09 19:48,3,46,80,71,29,50,50,0.38,16,58.5,44,3,0.39,0,22,14,8,1294,1030,333,0,246,61,48,0,43,1.1,8.1,0.26,0,485,0,6.3,7.3
2023/12/09 19:50,3,46,80,70,32,51,50,0.33,16,58.5,45,2,0.39,0,22,14,8,1245,1009,332,0,265,61,49,0,59,1.1,8.1,0.19,0,481,0,6.3,7.3
2023/12/09 19:52,3,46,79,70,31,51,49,0.32,16,58.5,45,2,0.39,0,20,14,8,1245,1009,333,0,265,60,50,0,66,1.2,8.0,0.13,0,477,0,6.3,7.3
2023/12/09 19:54,6,55,79,71,41,52,50,0.43,18,57.0,48,4,0.39,0,20,14,6,1242,1002,327,0,260,60,50,0,15,1.2,8.0,0.12,0,462,0,6.3,7.3
2023/12/09 19:56,6,55,79,70,40,54,51,0.43,19,56.5,46,4,0.39,0,20,14,6,1243,1009,325,0,252,60,50,0,17,1.2,8.0,0.13,0,462,0,6.3,7.3
2023/12/09 19:58,6,55,77,71,37,47,43,0.43,19,57.5,46,4,0.39,0,19,12,8,1439,1190,421,0,225,65,47,0,8,1.2,8.5,0.12,0,408,0,6.4,7.8
2023/12/09 20:00,5,55,77,71,37,50,44,0.37,20,57.5,47,4,0.39,0,19,12,6,1437,1190,421,0,230,66,49,0,11,1.2,8.5,0.15,0,421,0,6.5,7.9
2023/12/09 20:02,3,51,77,70,34,51,44,0.36,20,57.5,46,3,0.39,0,18,12,6,1434,1190,421,0,230,66,49,0,10,1.2,8.4,0.15,0,425,0,6.5,7.9